DW3348 Weather Reports


Display with metric or nautical units.
time (UTC)temp
F
wind
direction
speed
MPH
gust
MPH
rain 1hr
in
rain 24hr
in
rain mn
in
humidity
%
barometer
mb
20260503221126 91 195 2.0 5.0 0.00 0.00 0.00 28 1010.4
20260503220227 91 196 1.0 6.0 0.00 0.00 0.00 32 1010.4
20260503215326 90 208 1.0 4.0 0.00 0.00 0.00 33 1010.5
20260503214426 90 222 1.0 4.0 0.00 0.00 0.00 32 1010.7
20260503213526 90 244 1.0 5.0 0.00 0.00 0.00 34 1010.7
20260503212626 89 208 2.0 6.0 0.00 0.00 0.00 32 1010.8
20260503211726 89 202 2.0 7.0 0.00 0.00 0.00 31 1010.8
20260503210826 89 208 2.0 6.0 0.00 0.00 0.00 30 1010.8
20260503205926 88 196 2.0 9.0 0.00 0.00 0.00 31 1010.9
20260503205026 89 197 1.0 6.0 0.00 0.00 0.00 31 1011.1
20260503204126 88 215 1.0 7.0 0.00 0.00 0.00 32 1011.2
20260503203226 88 184 1.0 6.0 0.00 0.00 0.00 36 1011.3
20260503200526 86 209 1.0 5.0 0.00 0.00 0.00 35 1011.7
20260503195626 85 226 2.0 7.0 0.00 0.00 0.00 40 1011.7
20260503194726 84 199 1.0 5.0 0.00 0.00 0.00 36 1012.0
20260503192926 83 216 1.0 5.0 0.00 0.00 0.00 41 1012.0
20260503192026 83 220 1.0 5.0 0.00 0.00 0.00 40 1012.2
20260503191127 82 214 1.0 4.0 0.00 0.00 0.00 44 1012.3
20260503185326 80 187 0.0 3.0 0.00 0.00 0.00 46 1012.5
20260503184426 80 213 1.0 3.0 0.00 0.00 0.00 45 1012.6
20260503183526 79 234 0.0 3.0 0.00 0.00 0.00 48 1012.7
20260503182626 78 197 0.0 3.0 0.00 0.00 0.00 46 1012.8
20260503181726 77 212 1.0 5.0 0.00 0.00 0.00 49 1012.8
20260503175926 76 209 2.0 5.0 0.00 0.00 0.00 49 1012.9
20260503175026 76 212 1.0 5.0 0.00 0.00 0.00 50 1013.0
20260503174126 75 214 0.0 2.0 0.00 0.00 0.00 52 1013.1
20260503173226 74 191 1.0 5.0 0.00 0.00 0.00 53 1013.1
20260503172326 73 191 1.0 7.0 0.00 0.00 0.00 52 1013.2
20260503171426 72 197 1.0 4.0 0.00 0.00 0.00 57 1013.2
20260503150826 49 0 0.0 0.0 0.00 0.00 0.00 96 1013.7
20260503131126 45 0 0.0 0.0 0.00 0.00 0.00 93 1013.4
20260503130226 45 0 0.0 0.0 0.00 0.00 0.00 93 1013.4
20260503110526 47 0 0.0 0.0 0.00 0.00 0.00 92 1013.9
20260503081426 50 0 0.0 0.0 0.00 0.00 0.00 88 1014.2
20260503072926 51 0 0.0 0.0 0.00 0.00 0.00 88 1014.2
20260503072026 51 0 0.0 0.0 0.00 0.00 0.00 89 1014.2
20260503070226 52 0 0.0 0.0 0.00 0.00 0.00 89 1014.1
20260503055026 54 0 0.0 0.0 0.00 0.00 0.00 87 1014.1
20260503054126 54 0 0.0 0.0 0.00 0.00 0.00 86 1014.0
20260503053226 54 0 0.0 0.0 0.00 0.00 0.00 84 1014.1
20260503052326 54 0 0.0 0.0 0.00 0.00 0.00 82 1014.1
20260503051426 55 0 0.0 0.0 0.00 0.00 0.00 82 1014.0
20260503050526 55 0 0.0 0.0 0.00 0.00 0.00 82 1013.9
20260503045626 56 0 0.0 0.0 0.00 0.00 0.00 81 1013.9
20260503044726 56 0 0.0 0.0 0.00 0.00 0.00 81 1013.7
20260503043826 57 0 0.0 0.0 0.00 0.00 0.00 80 1013.7
20260503042926 58 0 0.0 0.0 0.00 0.00 0.00 79 1013.7
20260503042026 58 0 0.0 0.0 0.00 0.00 0.00 78 1013.7
20260503041126 59 0 0.0 0.0 0.00 0.00 0.00 77 1013.5
20260503040226 60 0 0.0 0.0 0.00 0.00 0.00 76 1013.4
20260503035326 60 0 0.0 0.0 0.00 0.00 0.00 76 1013.3
20260503034426 60 0 0.0 0.0 0.00 0.00 0.00 76 1013.1
20260503032626 62 0 0.0 0.0 0.00 0.00 0.00 75 1012.9
20260503031726 62 0 0.0 0.0 0.00 0.00 0.00 74 1012.9
20260503030826 63 0 0.0 0.0 0.00 0.00 0.00 73 1012.8
20260503025926 63 0 0.0 0.0 0.00 0.00 0.00 72 1012.8
20260503025026 64 0 0.0 0.0 0.00 0.00 0.00 71 1012.7
20260503024126 64 0 0.0 0.0 0.00 0.00 0.00 70 1012.6
20260503023226 65 0 0.0 0.0 0.00 0.00 0.00 70 1012.5
20260503022326 65 0 0.0 0.0 0.00 0.00 0.00 70 1012.5
20260503021426 66 0 0.0 0.0 0.00 0.00 0.00 68 1012.5
20260503020526 66 0 0.0 0.0 0.00 0.00 0.00 67 1012.5
20260503014726 67 153 0.0 4.0 0.00 0.00 0.00 65 1012.5
20260503012926 68 154 0.0 1.0 0.00 0.00 0.00 64 1012.7
20260503012026 69 132 0.0 4.0 0.00 0.00 0.00 63 1012.7
20260503011126 69 152 1.0 5.0 0.00 0.00 0.00 61 1012.7
20260503010226 70 147 0.0 2.0 0.00 0.00 0.00 59 1012.7
20260503003526 72 111 0.0 2.0 0.00 0.00 0.00 59 1012.7
20260503002626 72 115 0.0 4.0 0.00 0.00 0.00 57 1012.7
20260503000826 73 97 0.0 4.0 0.00 0.00 0.00 59 1012.9
20260502235926 74 155 0.0 4.0 0.00 0.00 0.00 56 1012.9
20260502235026 75 148 0.0 5.0 0.00 0.00 0.00 54 1013.1
20260502234126 76 290 0.0 2.0 0.00 0.00 0.00 51 1013.2
20260502233226 77 227 0.0 1.0 0.00 0.00 0.00 55 1013.3
20260502232326 76 239 0.0 4.0 0.00 0.00 0.00 57 1013.5
20260502231426 76 147 0.0 4.0 0.00 0.00 0.00 56 1013.6
20260502225626 76 84 0.0 4.0 0.00 0.00 0.00 54 1013.9
20260502224726 76 131 0.0 4.0 0.00 0.00 0.00 59 1014.0
20260502223826 76 146 1.0 5.0 0.00 0.00 0.00 56 1014.2
20260502222926 76 142 0.0 4.0 0.00 0.00 0.00 58 1014.3